DW9234 Weather Reports


time (UTC)temp
F
wind
direction
speed
knots
gust
knots
rain 1hr
in
rain 24hr
in
rain mn
in
humidity
%
barometer
mb
20260903231004 81 295 0.0 0.0 0.00 0.00 0.56 80 1014.3
20260903230004 81 295 0.0 0.0 0.00 0.00 0.56 79 1014.3
20260903225004 82 21 0.0 0.0 0.00 0.00 0.56 78 1014.2
20260903224004 82 288 0.0 0.0 0.00 0.00 0.56 78 1014.1
20260903223004 82 274 0.0 0.0 0.00 0.00 0.56 78 1014.0
20260903222005 83 275 0.0 0.0 0.00 0.00 0.56 78 1014.1
20260903221004 83 272 0.0 1.7 0.00 0.00 0.56 77 1014.2
20260903220004 83 129 0.0 3.5 0.00 0.00 0.56 77 1014.2
20260903215004 84 124 0.0 1.7 0.00 0.00 0.56 76 1014.2
20260903214005 84 125 0.0 5.2 0.00 0.00 0.56 75 1014.2
20260903213004 84 98 0.9 4.3 0.00 0.00 0.56 74 1014.0
20260903211004 84 20 0.9 5.2 0.00 0.00 0.56 74 1014.1
20260903210005 85 70 1.7 6.1 0.00 0.00 0.56 74 1014.1
20260903205004 85 248 0.0 6.1 0.00 0.00 0.56 74 1014.3
20260903204005 85 85 0.0 6.1 0.00 0.00 0.56 74 1014.2
20260903203005 86 236 2.6 7.0 0.00 0.00 0.56 75 1014.4
20260903202005 85 281 0.9 7.0 0.00 0.00 0.56 75 1014.5
20260903201005 85 229 0.0 5.2 0.00 0.00 0.56 76 1014.7
20260903200004 85 68 0.0 7.0 0.00 0.00 0.56 74 1014.8
20260903195004 85 93 0.0 7.0 0.00 0.00 0.56 74 1014.9
20260903194004 85 160 0.0 4.3 0.00 0.00 0.56 74 1014.8
20260903193005 85 34 0.0 6.1 0.00 0.00 0.56 74 1015.0
20260903192004 85 314 3.5 4.3 0.00 0.00 0.56 74 1015.1
20260903191005 85 298 0.0 6.1 0.00 0.00 0.56 74 1015.3
20260903190005 85 229 0.0 4.3 0.00 0.00 0.56 76 1015.5
20260903185004 85 138 1.7 5.2 0.00 0.00 0.56 75 1015.5
20260903184004 85 248 3.5 4.3 0.00 0.00 0.56 75 1015.6
20260903183005 85 360 1.7 5.2 0.00 0.00 0.56 74 1015.6
20260903182004 85 98 0.0 7.0 0.00 0.00 0.56 75 1015.8
20260903181004 84 222 0.0 6.1 0.00 0.00 0.56 75 1015.9
20260903180004 84 223 0.0 5.2 0.00 0.00 0.56 77 1015.8
20260903175005 84 235 0.0 5.2 0.00 0.00 0.56 77 1015.8
20260903174004 83 270 1.7 6.1 0.00 0.00 0.56 77 1015.9
20260903173005 82 88 0.0 0.0 0.00 0.00 0.56 80 1015.8
20260903172005 81 16 0.0 3.5 0.00 0.00 0.56 82 1016.0
20260903171004 80 295 0.0 2.6 0.00 0.00 0.56 81 1016.1
20260903170004 81 292 0.9 4.3 0.00 0.00 0.56 83 1016.3
20260903165004 79 17 0.9 7.0 0.00 0.00 0.56 89 1016.6
20260903164004 77 294 0.0 6.1 0.00 0.00 0.56 90 1017.0
20260903161004 76 254 0.9 4.3 0.00 0.00 0.56 91 1017.9
20260903160004 76 272 0.0 7.0 0.00 0.00 0.56 91 1018.2
20260903155005 76 294 0.9 9.6 0.00 0.00 0.56 91 1018.1
20260903154005 76 61 1.7 6.1 0.00 0.00 0.56 91 1017.9
20260903153005 76 251 0.0 6.1 0.00 0.00 0.56 91 1017.6
20260903152004 76 288 4.3 7.0 0.00 0.00 0.56 91 1017.9
20260903151004 76 76 3.5 5.2 0.00 0.00 0.56 91 1018.0
20260903150004 76 57 0.9 4.3 0.00 0.00 0.56 91 1017.5
20260903145004 76 94 1.7 5.2 0.00 0.00 0.56 91 1017.4
20260903144004 76 279 0.0 5.2 0.00 0.00 0.56 91 1017.1
20260903141004 75 46 1.7 5.2 0.00 0.00 0.56 91 1016.8
20260903140005 75 273 3.5 4.3 0.00 0.00 0.56 91 1016.7
20260903134004 74 87 1.7 6.1 0.00 0.00 0.56 91 1017.0
20260903133004 74 44 2.6 5.2 0.00 0.00 0.56 91 1017.1
20260903132005 73 124 0.0 4.3 0.00 0.00 0.56 91 1017.2
20260903131004 73 9 0.9 1.7 0.00 0.00 0.56 91 1017.1
20260903130005 72 9 0.0 3.5 0.00 0.00 0.56 91 1016.8
20260903124004 72 148 0.9 3.5 0.00 0.00 0.56 91 1017.2
20260903123004 72 130 1.7 4.3 0.00 0.00 0.56 91 1017.0
20260903122004 72 339 0.9 4.3 0.00 0.00 0.56 91 1017.0
20260903121005 72 9 0.0 3.5 0.00 0.00 0.56 91 1017.8
20260903114004 72 286 0.0 0.9 0.00 0.00 0.56 91 1019.3
20260903113005 72 101 0.0 0.0 0.00 0.00 0.56 91 1018.2
20260903112004 72 74 0.0 0.0 0.00 0.00 0.55 91 1019.3
20260903111004 72 302 0.0 5.2 0.00 0.00 0.53 91 1019.5
20260903110005 72 111 0.0 0.0 0.00 0.00 0.43 91 1018.9
20260903104005 72 113 0.0 0.0 0.00 0.00 0.43 90 1018.5
20260903103004 72 114 0.0 0.0 0.00 0.00 0.43 91 1018.5
20260903102004 72 103 0.0 0.0 0.00 0.00 0.43 91 1018.7
20260903101005 72 269 0.0 0.0 0.00 0.00 0.36 91 1019.4
20260903100004 72 269 0.0 0.0 0.00 0.00 0.29 91 1019.1
20260903094004 72 269 0.0 0.0 0.00 0.00 0.28 91 1018.6
20260903093005 72 269 0.0 0.0 0.00 0.00 0.28 91 1019.2
20260903092004 72 269 0.0 0.0 0.00 0.00 0.27 91 1019.2
20260903090005 72 355 0.0 4.3 0.00 0.00 0.25 90 1019.5
20260903085005 72 101 0.0 0.0 0.00 0.00 0.25 90 1019.7
20260903083005 72 103 0.0 0.0 0.00 0.00 0.25 90 1018.5
20260903082004 72 101 0.0 0.0 0.00 0.00 0.25 90 1018.4
20260903081005 72 101 0.0 0.0 0.00 0.00 0.25 90 1018.2
20260903080004 72 102 0.0 0.0 0.00 0.00 0.25 90 1018.4
20260903075005 72 101 0.0 0.0 0.00 0.00 0.25 90 1018.3
20260903074004 72 100 0.0 0.0 0.00 0.00 0.25 90 1018.4
20260903073003 72 98 0.0 0.0 0.00 0.00 0.25 90 1018.3
20260903072004 72 97 0.0 0.0 0.00 0.00 0.25 90 1018.1
20260903071003 72 96 0.0 0.0 0.00 0.00 0.25 90 1018.2
20260903065004 72 96 0.0 0.9 0.00 0.00 0.25 90 1018.2
20260903063004 72 95 0.0 0.9 0.00 0.00 0.25 90 1018.7
20260903062004 72 94 0.9 4.3 0.00 0.00 0.21 90 1018.8
20260903061004 73 238 4.3 4.3 0.00 0.00 0.18 90 1019.1
20260903060004 73 169 0.9 1.7 0.00 0.00 0.17 90 1019.5
20260903055004 73 205 0.0 0.9 0.00 0.00 0.17 90 1018.6
20260903053003 73 197 0.0 3.5 0.00 0.00 0.16 90 1018.7
20260903051004 73 105 0.0 0.0 0.00 0.00 0.00 90 1018.3
20260903050003 73 105 0.0 0.0 0.00 0.00 0.00 90 1018.5
20260903045004 73 105 0.0 0.0 0.00 0.00 0.00 90 1018.3
20260903044005 73 105 0.0 0.0 0.00 0.00 0.00 90 1018.5
20260903043004 73 105 0.0 0.0 0.00 0.00 0.00 90 1018.5
20260903042004 73 103 0.0 0.0 0.00 0.00 0.00 90 1018.5
20260903041004 73 99 0.0 0.0 0.00 0.00 0.00 90 1019.0
20260903040004 73 99 0.0 0.0 0.00 0.00 0.63 90 1019.2
20260903031004 73 98 0.0 0.0 0.00 0.00 0.63 90 1019.7
20260903030004 73 98 0.0 0.0 0.00 0.00 0.63 90 1019.4
20260903025005 73 98 0.0 0.0 0.00 0.00 0.63 90 1019.5
20260903024004 73 98 0.0 0.0 0.00 0.00 0.63 90 1019.4
20260903023005 73 98 0.0 1.7 0.00 0.00 0.63 90 1019.2
20260903022005 73 101 0.9 4.3 0.00 0.00 0.63 90 1018.7
20260903020004 74 127 0.9 6.1 0.00 0.00 0.63 90 1019.3
20260903014004 74 130 0.0 0.0 0.00 0.00 0.63 90 1019.4
20260903013005 74 131 0.0 0.0 0.00 0.00 0.63 90 1019.1
20260903012004 74 130 0.0 0.0 0.00 0.00 0.63 90 1018.9
20260903011004 74 130 0.0 0.0 0.00 0.00 0.63 90 1018.9
20260903010004 74 130 0.0 0.0 0.00 0.00 0.63 90 1018.8
20260903005004 74 130 0.0 0.0 0.00 0.00 0.63 90 1018.9
20260903004005 74 130 0.0 0.0 0.00 0.00 0.63 90 1018.9
20260903003004 74 130 0.0 0.0 0.00 0.00 0.63 90 1019.0
20260903001004 74 131 0.0 0.0 0.00 0.00 0.63 90 1018.7
20260903000005 75 131 0.0 0.0 0.00 0.00 0.63 90 1018.7
20260902235004 75 131 0.0 0.0 0.00 0.00 0.63 90 1018.7
20260902234004 75 131 0.0 0.0 0.00 0.00 0.63 90 1018.7
20260902233004 75 131 0.0 0.0 0.00 0.00 0.63 90 1018.7
20260902232004 75 131 0.0 0.0 0.00 0.00 0.63 90 1018.6